This is the latest recevied weather packets stored in our database for station/object SQ6XL-13. If no packets are shown the sender has not sent any weather packets the latest 10 day(s).
| Time | Temp. | Humidity | Pressure | Rain* | Wind** | Luminosity | Snow |
|---|---|---|---|---|---|---|---|
| 1787928785 | 26.67° C | 58% | 1013.6 hPa | 0 mm | - | - | - |
| 1787928255 | 26.11° C | 56% | 1013.6 hPa | 0 mm | - | - | - |
| 1787927720 | 26.11° C | 56% | 1013.8 hPa | 0 mm | - | - | - |
| 1787927120 | 26.11° C | 56% | 1013.8 hPa | 0 mm | - | - | - |
| 1787926550 | 26.11° C | 56% | 1013.7 hPa | 0 mm | - | - | - |
| 1787926005 | 26.11° C | 56% | 1013.9 hPa | 0 mm | - | - | - |
| 1787925505 | 26.67° C | 55% | 1014 hPa | 0 mm | - | - | - |
| 1787925005 | 26.67° C | 54% | 1013.8 hPa | 0 mm | - | - | - |
| 1787924515 | 26.67° C | 56% | 1014.1 hPa | 0 mm | - | - | - |
| 1787923965 | 26.67° C | 56% | 1014 hPa | 0 mm | - | - | - |
| 1787923460 | 26.67° C | 58% | 1013.8 hPa | 0 mm | - | - | - |
| 1787922980 | 27.22° C | 55% | 1014 hPa | 0 mm | - | - | - |
| 1787922390 | 27.22° C | 56% | 1014.1 hPa | 0 mm | - | - | - |
| 1787921895 | 27.22° C | 56% | 1014 hPa | 0 mm | - | - | - |
| 1787921380 | 27.22° C | 57% | 1013.8 hPa | 0 mm | - | - | - |
| 1787920807 | 26.67° C | 56% | 1014 hPa | 0 mm | - | - | - |
| 1787920245 | 26.67° C | 58% | 1013.9 hPa | 0 mm | - | - | - |
| 1787919730 | 26.67° C | 57% | 1014 hPa | 0 mm | - | - | - |
| 1787919250 | 26.67° C | 57% | 1014 hPa | 0 mm | - | - | - |
| 1787918705 | 26.67° C | 57% | 1014.3 hPa | 0 mm | - | - | - |
| 1787918125 | 26.67° C | 56% | 1014.2 hPa | 0 mm | - | - | - |
| 1787917531 | 26.67° C | 57% | 1014.4 hPa | 0 mm | - | - | - |
| 1787917015 | 26.11° C | 58% | 1014.3 hPa | 0 mm | - | - | - |
| 1787916425 | 26.11° C | 58% | 1014.3 hPa | 0 mm | - | - | - |
| 1787915900 | 25.56° C | 58% | 1014.4 hPa | 0 mm | - | - | - |
* Rain latest hour (hover to see other rain measurements)
** Current wind speed in m/s (hover to see current wind gust speed)